EW1179 Weather Reports


Display with metric or nautical units.
time (UTC)temp
F
wind
direction
speed
MPH
gust
MPH
rain 1hr
in
rain 24hr
in
rain mn
in
humidity
%
barometer
mb
20200331173149 61 30 2.0 5.0 0.00 0.01 0.01 71 1020.1
20200331171634 59 330 1.0 7.0 0.00 0.01 0.01 75 1020.3
20200331170144 58 51 1.0 7.0 0.00 0.01 0.01 75 1020.4
20200331164547 57 360 1.0 8.0 0.00 0.01 0.01 76 1020.5
20200331163049 56 36 0.0 6.0 0.00 0.01 0.01 79 1020.7
20200331161537 55 30 1.0 5.0 0.00 0.01 0.01 82 1020.7
20200331160037 53 355 1.0 5.0 0.00 0.01 0.01 87 1020.9
20200331154529 52 60 0.0 3.0 0.00 0.01 0.01 92 1020.9
20200331153022 50 74 0.0 4.0 0.00 0.01 0.01 93 1020.9
20200331151523 49 52 0.0 4.0 0.00 0.01 0.01 95 1020.9
20200331150019 47 163 0.0 0.0 0.00 0.01 0.01 95 1021.1
20200331144513 46 163 0.0 1.0 0.00 0.01 0.01 94 1021.0
20200331143026 45 163 0.0 0.0 0.00 0.01 0.01 94 1020.9
20200331141702 45 163 0.0 1.0 0.01 0.01 0.01 93 1020.8
20200331140220 45 184 0.0 2.0 0.01 0.01 0.01 93 1020.8
20200331134702 44 228 0.0 1.0 0.01 0.01 0.01 93 1020.8
20200331133132 44 107 0.0 1.0 0.01 0.01 0.01 93 1020.8
20200331131605 44 48 0.0 0.0 0.00 0.00 0.00 93 1020.8
20200331130216 44 284 0.0 0.0 0.00 0.00 0.00 92 1020.7
20200331124611 44 284 0.0 1.0 0.00 0.00 0.00 92 1020.6
20200331123203 44 284 0.0 1.0 0.00 0.00 0.00 92 1020.6
20200331121604 45 284 0.0 0.0 0.00 0.00 0.00 92 1020.8
20200331120153 45 284 0.0 0.0 0.00 0.00 0.00 92 1020.9
20200331114641 45 284 0.0 1.0 0.00 0.00 0.00 92 1020.9
20200331113053 44 190 0.0 0.0 0.00 0.00 0.00 92 1021.1
20200331111600 44 190 0.0 0.0 0.00 0.00 0.00 91 1021.3
20200331110135 44 319 0.0 0.0 0.00 0.00 0.00 91 1021.4
20200331104642 44 319 0.0 0.0 0.00 0.00 0.00 90 1021.5
20200331103115 44 319 0.0 0.0 0.00 0.00 0.00 90 1021.6
20200331101711 44 319 0.0 0.0 0.00 0.00 0.00 90 1021.8
20200331100058 44 319 0.0 0.0 0.00 0.00 0.00 89 1021.9
20200331094619 44 319 0.0 0.0 0.00 0.00 0.00 89 1022.0
20200331093056 45 319 0.0 0.0 0.00 0.00 0.00 89 1022.1
20200331090100 45 319 0.0 0.0 0.00 0.00 0.00 88 1022.5
20200331084610 46 319 0.0 0.0 0.00 0.00 0.00 88 1022.4
20200331083043 46 319 0.0 0.0 0.00 0.00 0.00 87 1022.5
20200331081543 47 319 0.0 0.0 0.00 0.00 0.00 87 1022.6
20200331080031 47 319 0.0 0.0 0.00 0.00 0.00 86 1022.7
20200331074539 47 319 0.0 0.0 0.00 0.00 0.00 86 1022.7
20200331073046 48 319 0.0 0.0 0.00 0.00 0.00 85 1022.7
20200331071532 48 257 0.0 2.0 0.00 0.00 0.00 84 1022.8
20200331070036 49 5 0.0 0.0 0.00 0.00 0.00 84 1022.8
20200331064625 49 5 0.0 0.0 0.00 0.00 0.00 83 1022.9
20200331063118 50 5 0.0 0.0 0.00 0.00 0.00 82 1023.0
20200331061539 51 5 0.0 0.0 0.00 0.00 0.00 81 1022.9
20200331060053 51 5 0.0 0.0 0.00 0.00 0.00 80 1022.9
20200331054523 52 5 0.0 0.0 0.00 0.00 0.00 79 1022.9
20200331053032 53 5 0.0 0.0 0.00 0.00 0.00 78 1022.9
20200331051510 54 5 0.0 0.0 0.00 0.00 0.00 77 1022.8
20200331050017 55 5 0.0 0.0 0.00 0.00 0.00 74 1022.7
20200331044509 56 5 0.0 0.0 0.00 0.00 0.00 72 1022.6
20200331043014 57 5 0.0 0.0 0.00 0.00 0.00 70 1022.5
20200331041509 58 5 0.0 0.0 0.00 0.00 0.00 69 1022.4
20200331040018 58 34 0.0 3.0 0.00 0.00 0.00 68 1022.2
20200331034518 59 114 0.0 0.0 0.00 0.00 0.00 66 1022.0
20200331033012 60 42 0.0 1.0 0.00 0.00 0.00 66 1021.8
20200331031505 61 38 0.0 1.0 0.00 0.00 0.00 64 1021.5
20200331030020 62 38 0.0 1.0 0.00 0.00 0.00 63 1021.2
20200331024537 63 38 0.0 1.0 0.00 0.00 0.00 61 1021.0
20200331023004 64 59 0.0 2.0 0.00 0.00 0.00 62 1020.9
20200331021504 65 5 0.0 1.0 0.00 0.00 0.00 61 1021.0
20200331020007 65 355 0.0 5.0 0.00 0.00 0.00 60 1021.1
20200331014502 66 57 0.0 4.0 0.00 0.00 0.00 58 1020.9
20200331013002 66 355 0.0 5.0 0.00 0.00 0.00 58 1020.9
20200331011647 67 15 0.0 5.0 0.00 0.00 0.00 56 1020.8
20200331010207 68 74 2.0 5.0 0.00 0.00 0.00 53 1020.8
20200331004716 69 123 0.0 4.0 0.00 0.00 0.00 52 1020.9
20200331003314 71 70 2.0 9.0 0.00 0.00 0.00 50 1020.9
20200331001624 70 349 0.0 5.0 0.00 0.00 0.00 50 1021.0
20200331000310 70 117 2.0 5.0 0.00 0.00 0.00 46 1021.1
20200330234705 70 317 2.0 9.0 0.00 0.00 0.00 48 1021.3
20200330233203 71 312 1.0 6.0 0.00 0.00 0.00 44 1021.4
20200330231753 70 97 1.0 6.0 0.00 0.00 0.00 47 1021.6
20200330230259 70 104 0.0 8.0 0.00 0.00 0.00 48 1021.8
20200330224633 70 55 0.0 5.0 0.00 0.00 0.00 49 1021.9
20200330223214 70 18 0.0 5.0 0.00 0.00 0.00 48 1022.2
20200330221553 70 360 0.0 6.0 0.00 0.00 0.00 45 1022.4
20200330220256 69 327 1.0 6.0 0.00 0.00 0.00 47 1022.4
20200330214630 70 52 1.0 7.0 0.00 0.00 0.00 46 1022.4
20200330213215 69 258 1.0 10.0 0.00 0.00 0.00 48 1022.6
20200330211642 68 5 2.0 6.0 0.00 0.00 0.00 50 1022.7
20200330210105 68 74 2.0 7.0 0.00 0.00 0.00 50 1023.0
20200330204555 67 327 3.0 9.0 0.00 0.00 0.00 55 1023.2
20200330203123 65 71 1.0 8.0 0.00 0.00 0.00 59 1023.3
20200330201632 67 40 2.0 8.0 0.00 0.00 0.00 57 1023.5
20200330200041 65 74 0.0 4.0 0.00 0.00 0.00 63 1023.8
20200330193052 63 28 1.0 6.0 0.00 0.00 0.00 65 1024.4
20200330191635 61 272 2.0 6.0 0.00 0.00 0.00 68 1024.6
20200330190039 61 66 2.0 8.0 0.00 0.00 0.00 68 1024.7
20200330184531 60 19 0.0 4.0 0.00 0.00 0.00 71 1024.8
20200330183027 57 192 0.0 4.0 0.00 0.00 0.00 77 1024.8
20200330181550 55 283 2.0 6.0 0.00 0.00 0.00 79 1024.9
20200330180010 53 78 3.0 6.0 0.00 0.00 0.00 86 1025.1
20200330174515 51 336 1.0 4.0 0.00 0.00 0.00 92 1025.0